Time,TemperatureF,DewpointF,PressureIn,WindDirection,WindDirectionDegrees,WindSpeedMPH,WindSpeedGustMPH,Humidity,HourlyPrecipIn,Conditions,Clouds,dailyrainin,SoftwareType,DateUTC
2013-04-02 00:09:00,55.0,53.0,30.06,NE,54,0.0,-999.0,93,-99.99,,,0.00,weatherlink.com 1.10,2013-04-02 05:09:00,
2013-04-02 00:24:00,54.7,53.0,30.06,NE,54,0.0,-999.0,93,-99.99,,,0.00,weatherlink.com 1.10,2013-04-02 05:24:00,
2013-04-02 00:39:00,54.4,53.0,30.07,NE,54,0.0,-999.0,93,-99.99,,,0.00,weatherlink.com 1.10,2013-04-02 05:39:00,
2013-04-02 00:54:00,54.1,52.0,30.06,NE,54,0.0,-999.0,93,-99.99,,,0.00,weatherlink.com 1.10,2013-04-02 05:54:00,
2013-04-02 01:09:00,53.8,52.0,30.06,NE,54,0.0,-999.0,93,-99.99,,,0.00,weatherlink.com 1.10,2013-04-02 06:09:00,
2013-04-02 01:24:00,53.5,52.0,30.06,NE,54,0.0,-999.0,94,-99.99,,,0.00,weatherlink.com 1.10,2013-04-02 06:24:00,
2013-04-02 01:39:00,53.4,52.0,30.06,NE,55,0.0,-999.0,94,-99.99,,,0.00,weatherlink.com 1.10,2013-04-02 06:39:00,
2013-04-02 01:54:00,53.1,52.0,30.06,NE,55,0.0,-999.0,94,-99.99,,,0.00,weatherlink.com 1.10,2013-04-02 06:54:00,
2013-04-02 02:09:00,52.9,51.0,30.06,NE,55,0.0,-999.0,94,-99.99,,,0.00,weatherlink.com 1.10,2013-04-02 07:09:00,
2013-04-02 02:24:00,52.6,51.0,30.05,NE,55,0.0,-999.0,94,-99.99,,,0.00,weatherlink.com 1.10,2013-04-02 07:24:00,
2013-04-02 02:39:00,52.4,51.0,30.05,NE,55,0.0,-999.0,94,-99.99,,,0.00,weatherlink.com 1.10,2013-04-02 07:39:00,
2013-04-02 02:54:00,52.1,51.0,30.05,NE,55,0.0,-999.0,94,-99.99,,,0.00,weatherlink.com 1.10,2013-04-02 07:54:00,
2013-04-02 03:09:00,51.8,50.0,30.05,NE,55,0.0,-999.0,94,-99.99,,,0.00,weatherlink.com 1.10,2013-04-02 08:09:00,
2013-04-02 03:24:00,51.5,50.0,30.05,NE,55,0.0,-999.0,94,-99.99,,,0.00,weatherlink.com 1.10,2013-04-02 08:24:00,
2013-04-02 03:39:00,51.4,50.0,30.04,NE,55,0.0,-999.0,95,-99.99,,,0.00,weatherlink.com 1.10,2013-04-02 08:39:00,
2013-04-02 03:54:00,51.1,50.0,30.05,NE,55,0.0,-999.0,94,-99.99,,,0.00,weatherlink.com 1.10,2013-04-02 08:54:00,
2013-04-02 04:09:00,51.0,50.0,30.05,NE,55,0.0,-999.0,95,-99.99,,,0.00,weatherlink.com 1.10,2013-04-02 09:09:00,
2013-04-02 04:24:00,50.8,50.0,30.04,NE,55,0.0,-999.0,95,-99.99,,,0.00,weatherlink.com 1.10,2013-04-02 09:24:00,
2013-04-02 04:39:00,50.8,50.0,30.05,NE,55,0.0,-999.0,95,-99.99,,,0.00,weatherlink.com 1.10,2013-04-02 09:39:00,
2013-04-02 04:54:00,50.7,49.0,30.04,NE,55,0.0,-999.0,95,-99.99,,,0.00,weatherlink.com 1.10,2013-04-02 09:54:00,
2013-04-02 05:09:00,50.7,49.0,30.05,NE,55,0.0,-999.0,95,-99.99,,,0.00,weatherlink.com 1.10,2013-04-02 10:09:00,
2013-04-02 05:24:00,50.7,49.0,30.06,NE,55,0.0,-999.0,95,-99.99,,,0.00,weatherlink.com 1.10,2013-04-02 10:24:00,
2013-04-02 05:39:00,50.5,49.0,30.06,NE,55,0.0,-999.0,95,-99.99,,,0.00,weatherlink.com 1.10,2013-04-02 10:39:00,
2013-04-02 05:54:00,50.4,49.0,30.07,NE,55,0.0,-999.0,95,-99.99,,,0.00,weatherlink.com 1.10,2013-04-02 10:54:00,
2013-04-02 06:09:00,50.3,49.0,30.07,NE,55,0.0,-999.0,95,-99.99,,,0.00,weatherlink.com 1.10,2013-04-02 11:09:00,
2013-04-02 06:24:00,50.1,49.0,30.09,NE,55,0.0,-999.0,95,-99.99,,,0.00,weatherlink.com 1.10,2013-04-02 11:24:00,
2013-04-02 06:39:00,49.9,49.0,30.09,NE,55,0.0,-999.0,95,-99.99,,,0.00,weatherlink.com 1.10,2013-04-02 11:39:00,
2013-04-02 06:54:00,49.9,49.0,30.09,NE,55,0.0,-999.0,95,-99.99,,,0.00,weatherlink.com 1.10,2013-04-02 11:54:00,
2013-04-02 07:09:00,49.9,49.0,30.10,NE,55,0.0,-999.0,95,-99.99,,,0.00,weatherlink.com 1.10,2013-04-02 12:09:00,
2013-04-02 07:24:00,50.0,49.0,30.10,NE,55,0.0,-999.0,95,-99.99,,,0.00,weatherlink.com 1.10,2013-04-02 12:24:00,
2013-04-02 07:39:00,50.8,50.0,30.11,NE,55,0.0,-999.0,96,-99.99,,,0.01,weatherlink.com 1.10,2013-04-02 12:39:00,
2013-04-02 07:54:00,52.0,51.0,30.11,NE,55,0.0,-999.0,96,-99.99,,,0.01,weatherlink.com 1.10,2013-04-02 12:54:00,
2013-04-02 08:09:00,52.8,52.0,30.11,NE,51,0.0,-999.0,96,-99.99,,,0.01,weatherlink.com 1.10,2013-04-02 13:09:00,
2013-04-02 08:25:00,54.1,53.0,30.11,NE,51,3.0,-999.0,96,-99.99,,,0.01,weatherlink.com 1.10,2013-04-02 13:25:00,
2013-04-02 08:40:00,55.5,54.0,30.12,NE,51,0.0,-999.0,96,-99.99,,,0.01,weatherlink.com 1.10,2013-04-02 13:40:00,
2013-04-02 08:55:00,56.4,55.0,30.11,NE,54,3.0,-999.0,95,-99.99,,,0.01,weatherlink.com 1.10,2013-04-02 13:55:00,
2013-04-02 09:10:00,58.4,56.0,30.11,East,83,6.0,-999.0,90,-99.99,,,0.01,weatherlink.com 1.10,2013-04-02 14:10:00,
2013-04-02 09:25:00,60.9,57.0,30.10,East,96,5.0,-999.0,87,-99.99,,,0.01,weatherlink.com 1.10,2013-04-02 14:25:00,
2013-04-02 09:40:00,63.0,59.0,30.10,ESE,105,5.0,-999.0,85,-99.99,,,0.01,weatherlink.com 1.10,2013-04-02 14:40:00,
2013-04-02 09:55:00,64.8,60.0,30.10,NE,48,3.0,-999.0,83,-99.99,,,0.01,weatherlink.com 1.10,2013-04-02 14:55:00,
2013-04-02 10:10:00,66.4,61.0,30.10,ENE,76,1.0,-999.0,82,-99.99,,,0.01,weatherlink.com 1.10,2013-04-02 15:10:00,
2013-04-02 10:25:00,67.8,61.0,30.10,East,84,4.0,-999.0,80,-99.99,,,0.01,weatherlink.com 1.10,2013-04-02 15:25:00,
2013-04-02 10:40:00,68.2,61.0,30.10,East,90,2.0,-999.0,79,-99.99,,,0.01,weatherlink.com 1.10,2013-04-02 15:40:00,
2013-04-02 10:55:00,68.7,62.0,30.10,ENE,78,2.0,-999.0,78,-99.99,,,0.01,weatherlink.com 1.10,2013-04-02 15:55:00,
2013-04-02 11:10:00,70.3,62.0,30.10,SSE,154,1.0,-999.0,74,-99.99,,,0.01,weatherlink.com 1.10,2013-04-02 16:10:00,
2013-04-02 11:25:00,71.5,61.0,30.11,SSE,157,4.0,-999.0,70,-99.99,,,0.01,weatherlink.com 1.10,2013-04-02 16:25:00,
2013-04-02 11:40:00,72.0,61.0,30.11,SE,144,2.0,-999.0,68,-99.99,,,0.01,weatherlink.com 1.10,2013-04-02 16:40:00,
2013-04-02 11:55:00,72.9,62.0,30.11,East,101,4.0,-999.0,69,-99.99,,,0.01,weatherlink.com 1.10,2013-04-02 16:55:00,
2013-04-02 12:10:00,74.5,59.0,30.10,ESE,114,16.0,-999.0,59,-99.99,,,0.01,weatherlink.com 1.10,2013-04-02 17:10:00,
2013-04-02 12:25:00,74.2,58.0,30.09,East,81,8.0,-999.0,58,-99.99,,,0.01,weatherlink.com 1.10,2013-04-02 17:25:00,
2013-04-02 12:40:00,75.4,58.0,30.09,SE,137,6.0,-999.0,56,-99.99,,,0.01,weatherlink.com 1.10,2013-04-02 17:40:00,
2013-04-02 12:55:00,75.7,58.0,30.08,SSE,156,2.0,-999.0,55,-99.99,,,0.01,weatherlink.com 1.10,2013-04-02 17:55:00,
2013-04-02 13:10:00,76.0,59.0,30.07,SE,140,2.0,-999.0,55,-99.99,,,0.01,weatherlink.com 1.10,2013-04-02 18:10:00,
2013-04-02 13:25:00,76.7,59.0,30.06,SE,129,8.0,-999.0,54,-99.99,,,0.01,weatherlink.com 1.10,2013-04-02 18:25:00,
2013-04-02 13:41:00,77.3,59.0,30.05,ENE,64,10.0,-999.0,54,-99.99,,,0.01,weatherlink.com 1.10,2013-04-02 18:41:00,
2013-04-02 13:56:00,78.6,60.0,30.04,ENE,72,5.0,-999.0,53,-99.99,,,0.01,weatherlink.com 1.10,2013-04-02 18:56:00,
2013-04-02 14:11:00,79.9,59.0,30.04,ESE,123,5.0,-999.0,49,-99.99,,,0.01,weatherlink.com 1.10,2013-04-02 19:11:00,
2013-04-02 14:26:00,78.8,60.0,30.03,SE,125,0.0,-999.0,52,-99.99,,,0.01,weatherlink.com 1.10,2013-04-02 19:26:00,
2013-04-02 14:41:00,78.1,57.0,30.02,ENE,72,4.0,-999.0,49,-99.99,,,0.01,weatherlink.com 1.10,2013-04-02 19:41:00,
2013-04-02 15:11:00,78.8,57.0,30.00,ENE,76,6.0,-999.0,48,-99.99,,,0.01,weatherlink.com 1.10,2013-04-02 20:11:00,
2013-04-02 15:41:00,78.8,58.0,29.98,ESE,105,5.0,-999.0,49,-99.99,,,0.01,weatherlink.com 1.10,2013-04-02 20:41:00,
2013-04-02 16:26:00,78.1,59.0,29.98,SE,138,4.0,-999.0,53,-99.99,,,0.01,weatherlink.com 1.10,2013-04-02 21:26:00,
2013-04-02 17:11:00,76.5,61.0,29.97,SE,134,2.0,-999.0,59,-99.99,,,0.01,weatherlink.com 1.10,2013-04-02 22:11:00,
2013-04-02 17:26:00,76.2,61.0,29.98,ESE,106,4.0,-999.0,60,-99.99,,,0.01,weatherlink.com 1.10,2013-04-02 22:26:00,
2013-04-02 18:11:00,74.6,60.0,29.98,ESE,105,0.0,-999.0,61,-99.99,,,0.01,weatherlink.com 1.10,2013-04-02 23:11:00,
2013-04-02 18:41:00,73.5,61.0,29.98,ESE,104,1.0,-999.0,64,-99.99,,,0.01,weatherlink.com 1.10,2013-04-02 23:41:00,
2013-04-02 18:56:00,73.0,60.0,30.00,ESE,111,0.0,-999.0,65,-99.99,,,0.01,weatherlink.com 1.10,2013-04-02 23:56:00,
2013-04-02 19:26:00,71.6,60.0,29.99,ESE,107,4.0,-999.0,67,-99.99,,,0.01,weatherlink.com 1.10,2013-04-03 00:26:00,
2013-04-02 19:41:00,70.3,60.0,30.00,ESE,107,1.0,-999.0,70,-99.99,,,0.01,weatherlink.com 1.10,2013-04-03 00:41:00,
2013-04-02 20:11:00,68.4,59.0,29.99,East,101,1.0,-999.0,72,-99.99,,,0.01,weatherlink.com 1.10,2013-04-03 01:11:00,
2013-04-02 20:26:00,68.0,59.0,29.99,ESE,103,1.0,-999.0,73,-99.99,,,0.01,weatherlink.com 1.10,2013-04-03 01:26:00,
2013-04-02 20:41:00,67.9,59.0,30.00,ESE,119,6.0,-999.0,72,-99.99,,,0.01,weatherlink.com 1.10,2013-04-03 01:41:00,
2013-04-02 20:56:00,67.8,59.0,29.99,SE,125,6.0,-999.0,73,-99.99,,,0.01,weatherlink.com 1.10,2013-04-03 01:56:00,
2013-04-02 21:11:00,67.7,59.0,29.99,ENE,76,3.0,-999.0,74,-99.99,,,0.01,weatherlink.com 1.10,2013-04-03 02:11:00,
2013-04-02 21:26:00,67.6,60.0,29.99,ESE,122,4.0,-999.0,76,-99.99,,,0.01,weatherlink.com 1.10,2013-04-03 02:26:00,
2013-04-02 21:41:00,67.3,60.0,29.98,East,90,4.0,-999.0,78,-99.99,,,0.01,weatherlink.com 1.10,2013-04-03 02:41:00,
2013-04-02 22:11:00,66.3,61.0,29.98,ESE,111,2.0,-999.0,82,-99.99,,,0.01,weatherlink.com 1.10,2013-04-03 03:11:00,
2013-04-02 22:26:00,65.9,61.0,29.99,SE,129,4.0,-999.0,83,-99.99,,,0.01,weatherlink.com 1.10,2013-04-03 03:26:00,
2013-04-02 22:41:00,65.8,61.0,30.00,SE,132,2.0,-999.0,84,-99.99,,,0.01,weatherlink.com 1.10,2013-04-03 03:41:00,
2013-04-02 23:11:00,65.6,61.0,29.98,East,99,6.0,-999.0,86,-99.99,,,0.01,weatherlink.com 1.10,2013-04-03 04:11:00,
2013-04-02 23:26:00,65.4,61.0,29.96,ENE,74,2.0,-999.0,86,-99.99,,,0.01,weatherlink.com 1.10,2013-04-03 04:26:00,
2013-04-02 23:41:00,65.3,61.0,29.97,ENE,73,0.0,-999.0,87,-99.99,,,0.01,weatherlink.com 1.10,2013-04-03 04:41:00,
2013-04-02 23:56:00,65.0,61.0,29.96,East,83,1.0,-999.0,87,-99.99,,,0.01,weatherlink.com 1.10,2013-04-03 04:56:00,